Location: Drocourt
(49.0571°N, 1.7669°E)
Time: 16:07:45
(UTC+00:00)

Vanguard 3 - Pass Details

Date: 14 April 2024
Orbit: 509 x 3233 km, 33.3° (Epoch: 23 May)

Event Time Altitude Azimuth Distance (km) Brightness Sun altitude
Rises 04:25:38 0° 204° (SSW) 5,524 11.0 -6.6°
Reaches altitude 10° 04:34:00 10° 171° (S) 3,617 10.3 -5.3°
Maximum altitude 04:35:21 10° 162° (SSE) 3,432 10.3 -5.1°
Drops below altitude 10° 04:36:37 10° 154° (SSE) 3,316 10.4 -4.9°
Sets 04:42:13 0° 115° (ESE) 3,621 11.3 -4.1°
